Location: Unspecified
(41.1637°N, 24.2901°E)
Time: 08:18:50
(UTC+01:00)

ISS - Pass Details

Date: 07 December 2018
Orbit: 401 x 408 km, 51.6° (Epoch: 12 December)

Event Time Altitude Azimuth Distance (km) Brightness Sun altitude
Rises 16:54:24 0° 309° (NW) 2,319 0.5 -11.1°
Reaches altitude 10° 16:57:03 10° 332° (NNW) 1,457 -0.9 -11.6°
Maximum altitude 16:59:13 16° 13° (NNE) 1,136 -1.9 -12.0°
Enters shadow 17:00:03 15° 32° (NNE) 1,189 -1.9 -12.1°
